TimeCST,TemperatureF,Dew PointF,Humidity,Sea Level PressureIn,VisibilityMPH,Wind Direction,Wind SpeedMPH,Gust SpeedMPH,PrecipitationIn,Events,Conditions,WindDirDegrees,DateUTC
12:15 AM,51.8,51.8,100,29.92,6.0,SW,5.8,-,N/A,,Clear,220,2012-01-07 06:15:00
12:35 AM,50.0,50.0,100,29.92,5.0,West,3.5,-,N/A,,Clear,260,2012-01-07 06:35:00
1:15 AM,51.8,50.0,94,29.92,4.0,SW,5.8,-,N/A,,Partly Cloudy,220,2012-01-07 07:15:00
1:35 AM,46.4,44.6,93,29.93,0.2,West,6.9,-,N/A,,Mostly Cloudy,280,2012-01-07 07:35:00
1:55 AM,48.2,48.2,100,29.94,0.8,WSW,5.8,-,N/A,,Unknown,250,2012-01-07 07:55:00
2:15 AM,50.0,48.2,94,29.93,0.8,WSW,4.6,-,N/A,,Unknown,250,2012-01-07 08:15:00
2:35 AM,48.2,48.2,100,29.94,0.8,West,4.6,-,N/A,,Mostly Cloudy,260,2012-01-07 08:35:00
2:55 AM,46.4,46.4,100,29.94,0.2,West,5.8,-,N/A,,Mostly Cloudy,280,2012-01-07 08:55:00
3:35 AM,46.4,44.6,93,29.95,2.0,WNW,8.1,-,N/A,,Clear,290,2012-01-07 09:35:00
3:55 AM,44.6,42.8,93,29.95,2.0,WNW,8.1,-,N/A,,Clear,300,2012-01-07 09:55:00
4:15 AM,46.4,46.4,100,29.95,4.0,WNW,4.6,-,N/A,,Clear,290,2012-01-07 10:15:00
4:35 AM,46.4,46.4,100,29.96,7.0,NW,6.9,-,N/A,,Mostly Cloudy,310,2012-01-07 10:35:00
4:55 AM,44.6,42.8,93,29.96,3.0,NNW,9.2,-,N/A,,Mostly Cloudy,340,2012-01-07 10:55:00
5:15 AM,46.4,44.6,93,29.98,10.0,North,9.2,-,N/A,,Mostly Cloudy,360,2012-01-07 11:15:00
5:35 AM,48.2,42.8,82,29.98,10.0,North,6.9,-,N/A,,Mostly Cloudy,10,2012-01-07 11:35:00
6:15 AM,44.6,42.8,93,30.01,10.0,North,6.9,-,N/A,,Partly Cloudy,350,2012-01-07 12:15:00
6:55 AM,44.6,39.2,81,30.03,10.0,North,9.2,-,N/A,,Partly Cloudy,360,2012-01-07 12:55:00
7:15 AM,44.6,37.4,76,30.04,10.0,North,9.2,-,N/A,,Clear,360,2012-01-07 13:15:00
7:35 AM,44.6,37.4,76,30.05,10.0,North,8.1,-,N/A,,Clear,360,2012-01-07 13:35:00
7:55 AM,44.6,37.4,76,30.06,10.0,North,8.1,-,N/A,,Mostly Cloudy,360,2012-01-07 13:55:00
8:15 AM,44.6,37.4,76,30.06,10.0,NNE,8.1,-,N/A,,Mostly Cloudy,20,2012-01-07 14:15:00
8:35 AM,46.4,35.6,66,30.07,10.0,NNE,11.5,-,N/A,,Partly Cloudy,20,2012-01-07 14:35:00
8:55 AM,46.4,35.6,66,30.08,10.0,NNE,11.5,-,N/A,,Clear,20,2012-01-07 14:55:00
9:15 AM,46.4,32.0,57,30.08,10.0,NNE,9.2,-,N/A,,Clear,20,2012-01-07 15:15:00
9:35 AM,46.4,32.0,57,30.10,10.0,North,11.5,-,N/A,,Clear,10,2012-01-07 15:35:00
9:55 AM,46.4,32.0,57,30.10,10.0,North,11.5,-,N/A,,Clear,10,2012-01-07 15:55:00
10:15 AM,46.4,30.2,53,30.11,10.0,North,10.4,-,N/A,,Clear,10,2012-01-07 16:15:00
10:35 AM,46.4,30.2,53,30.11,10.0,NNE,12.7,-,N/A,,Clear,30,2012-01-07 16:35:00
10:55 AM,50.0,30.2,47,30.11,10.0,NE,15.0,-,N/A,,Clear,40,2012-01-07 16:55:00
11:15 AM,51.8,30.2,44,30.11,10.0,NE,13.8,-,N/A,,Clear,40,2012-01-07 17:15:00
11:35 AM,51.8,30.2,44,30.11,10.0,ENE,16.1,-,N/A,,Clear,60,2012-01-07 17:35:00
11:55 AM,53.6,28.4,38,30.12,10.0,NE,15.0,-,N/A,,Clear,50,2012-01-07 17:55:00
12:15 PM,53.6,28.4,38,30.11,10.0,ENE,13.8,-,N/A,,Clear,60,2012-01-07 18:15:00
12:35 PM,53.6,30.2,41,30.10,10.0,ENE,15.0,-,N/A,,Clear,60,2012-01-07 18:35:00
12:55 PM,53.6,28.4,38,30.09,10.0,NE,16.1,-,N/A,,Clear,50,2012-01-07 18:55:00
1:15 PM,53.6,28.4,38,30.08,10.0,NE,15.0,-,N/A,,Clear,50,2012-01-07 19:15:00
1:35 PM,53.6,30.2,41,30.08,10.0,NE,15.0,19.6,N/A,,Clear,50,2012-01-07 19:35:00
1:55 PM,55.4,28.4,36,30.08,10.0,NE,16.1,-,N/A,,Clear,50,2012-01-07 19:55:00
2:15 PM,55.4,28.4,36,30.08,10.0,ENE,15.0,-,N/A,,Clear,70,2012-01-07 20:15:00
2:35 PM,55.4,30.2,38,30.09,10.0,NE,11.5,-,N/A,,Clear,50,2012-01-07 20:35:00
2:55 PM,55.4,30.2,38,30.09,10.0,NE,11.5,-,N/A,,Clear,50,2012-01-07 20:55:00
3:15 PM,55.4,30.2,38,30.09,10.0,NE,9.2,-,N/A,,Clear,50,2012-01-07 21:15:00
3:35 PM,55.4,30.2,38,30.09,10.0,ENE,10.4,-,N/A,,Clear,60,2012-01-07 21:35:00
3:55 PM,53.6,32.0,44,30.10,10.0,ENE,9.2,-,N/A,,Clear,60,2012-01-07 21:55:00
4:15 PM,53.6,32.0,44,30.09,10.0,ENE,10.4,-,N/A,,Clear,70,2012-01-07 22:15:00
4:35 PM,51.8,33.8,50,30.09,10.0,East,6.9,-,N/A,,Clear,80,2012-01-07 22:35:00
4:55 PM,48.2,35.6,62,30.10,10.0,ENE,5.8,-,N/A,,Partly Cloudy,60,2012-01-07 22:55:00
5:15 PM,48.2,35.6,62,30.10,10.0,NE,6.9,-,N/A,,Scattered Clouds,50,2012-01-07 23:15:00
5:35 PM,48.2,35.6,62,30.11,10.0,NE,6.9,-,N/A,,Mostly Cloudy,40,2012-01-07 23:35:00
5:55 PM,48.2,33.8,58,30.12,10.0,NNE,6.9,-,N/A,,Mostly Cloudy,30,2012-01-07 23:55:00
6:15 PM,48.2,33.8,58,30.12,10.0,NE,6.9,-,N/A,,Overcast,50,2012-01-08 00:15:00
6:35 PM,46.4,35.6,66,30.12,10.0,NE,6.9,-,N/A,,Mostly Cloudy,50,2012-01-08 00:35:00
6:55 PM,46.4,35.6,66,30.12,10.0,ENE,5.8,-,N/A,,Mostly Cloudy,60,2012-01-08 00:55:00
7:15 PM,46.4,35.6,66,30.13,10.0,ENE,5.8,-,N/A,,Mostly Cloudy,60,2012-01-08 01:15:00
7:35 PM,46.4,35.6,66,30.13,10.0,NE,4.6,-,N/A,,Mostly Cloudy,50,2012-01-08 01:35:00
7:55 PM,46.4,35.6,66,30.13,10.0,NNE,5.8,-,N/A,,Mostly Cloudy,30,2012-01-08 01:55:00
8:35 PM,48.2,33.8,58,30.15,10.0,NNE,6.9,-,N/A,,Overcast,30,2012-01-08 02:35:00
8:55 PM,46.4,35.6,66,30.14,10.0,NE,9.2,-,N/A,,Mostly Cloudy,50,2012-01-08 02:55:00
9:15 PM,46.4,33.8,62,30.15,10.0,NE,9.2,-,N/A,,Mostly Cloudy,40,2012-01-08 03:15:00
9:35 PM,46.4,33.8,62,30.14,10.0,ENE,9.2,-,N/A,,Overcast,60,2012-01-08 03:35:00
9:55 PM,46.4,33.8,62,30.15,10.0,ENE,9.2,-,N/A,,Overcast,60,2012-01-08 03:55:00
10:15 PM,44.6,35.6,71,30.16,10.0,ENE,8.1,-,N/A,,Overcast,60,2012-01-08 04:15:00
10:35 PM,44.6,33.8,66,30.16,10.0,NE,11.5,-,N/A,,Overcast,50,2012-01-08 04:35:00
10:55 PM,44.6,33.8,66,30.15,10.0,NE,10.4,-,N/A,,Mostly Cloudy,50,2012-01-08 04:55:00
11:15 PM,44.6,32.0,61,30.16,10.0,ENE,10.4,-,N/A,,Scattered Clouds,60,2012-01-08 05:15:00
11:35 PM,42.8,32.0,66,30.15,10.0,NE,10.4,-,N/A,,Scattered Clouds,50,2012-01-08 05:35:00
11:55 PM,42.8,33.8,70,30.15,10.0,ENE,11.5,-,N/A,,Mostly Cloudy,60,2012-01-08 05:55:00